GW0983 Weather Reports


time (UTC)temp
F
wind
direction
speed
knots
gust
knots
rain 1hr
in
rain 24hr
in
rain mn
in
humidity
%
barometer
mb
20260505201045 53 238 1.7 7.0 0.00 0.00 0.00 95 1019.5
20260505200542 53 115 1.7 7.0 0.00 0.00 0.00 95 1019.5
20260505200053 53 228 2.6 7.0 0.00 0.00 0.00 96 1019.5
20260505195544 52 236 1.7 7.8 0.00 0.00 0.00 96 1019.5
20260505195041 52 279 1.7 7.8 0.00 0.00 0.00 96 1019.4
20260505194548 52 232 1.7 7.8 0.00 0.00 0.00 97 1019.5
20260505194043 52 216 2.6 7.8 0.00 0.00 0.00 97 1019.6
20260505193540 52 272 2.6 7.8 0.00 0.00 0.00 97 1019.7
20260505193046 52 247 2.6 7.0 0.00 0.00 0.00 97 1019.4
20260505192543 52 221 1.7 6.1 0.00 0.00 0.00 97 1019.5
20260505192044 52 235 1.7 8.7 0.00 0.00 0.00 97 1019.4
20260505191600 52 265 2.6 9.6 0.00 0.00 0.00 97 1019.4
20260505191041 52 238 3.5 9.6 0.00 0.00 0.00 97 1019.4
20260505190541 52 223 2.6 9.6 0.00 0.00 0.00 97 1019.4
20260505190050 52 292 2.6 7.0 0.00 0.00 0.00 98 1019.4
20260505185541 52 219 2.6 7.0 0.00 0.00 0.00 97 1019.4
20260505185042 52 247 3.5 7.0 0.00 0.00 0.00 98 1019.2
20260505184549 52 246 2.6 6.1 0.00 0.00 0.00 98 1019.2
20260505184042 52 265 2.6 7.0 0.00 0.00 0.00 98 1019.3
20260505183546 52 268 2.6 7.0 0.00 0.00 0.00 98 1019.2
20260505183046 51 215 1.7 7.0 0.00 0.00 0.00 98 1019.2
20260505182541 51 265 2.6 7.0 0.00 0.00 0.00 98 1019.3
20260505182041 51 196 3.5 7.0 0.00 0.00 0.00 98 1019.3
20260505181547 51 235 1.7 11.3 0.00 0.00 0.00 98 1019.3
20260505181041 51 223 2.6 11.3 0.00 0.00 0.00 98 1019.2
20260505180542 51 221 3.5 11.3 0.00 0.00 0.00 98 1019.2
20260505180057 51 221 3.5 7.8 0.00 0.00 0.00 98 1019.1
20260505175542 51 338 3.5 7.0 0.00 0.00 0.00 98 1019.2
20260505175042 51 200 1.7 6.1 0.00 0.00 0.00 98 1019.1
20260505174554 51 215 2.6 6.1 0.00 0.00 0.00 98 1018.9
20260505174042 51 226 2.6 7.8 0.00 0.00 0.00 98 1018.9
20260505173541 51 209 3.5 8.7 0.00 0.00 0.00 97 1018.8
20260505173055 51 201 3.5 8.7 0.00 0.00 0.00 98 1018.7
20260505172543 51 221 2.6 7.0 0.00 0.00 0.00 98 1018.8
20260505172042 51 238 2.6 7.0 0.00 0.00 0.00 98 1018.8
20260505171550 51 241 1.7 6.1 0.00 0.00 0.00 98 1018.8
20260505171042 51 243 2.6 7.0 0.00 0.00 0.00 98 1018.8
20260505170540 50 265 2.6 7.8 0.00 0.00 0.00 98 1018.8
20260505170106 50 228 3.5 7.8 0.00 0.00 0.00 98 1018.8
20260505165543 50 265 3.5 7.8 0.00 0.00 0.00 98 1018.8
20260505165043 50 268 3.5 10.4 0.00 0.00 0.00 98 1018.8
20260505164550 50 208 1.7 10.4 0.00 0.00 0.00 97 1018.8
20260505164042 50 250 4.3 10.4 0.00 0.00 0.00 98 1018.7
20260505163542 50 238 2.6 6.1 0.00 0.00 0.00 98 1018.6
20260505163053 50 225 2.6 9.6 0.00 0.00 0.00 98 1018.7
20260505162542 50 230 3.5 9.6 0.00 0.00 0.00 97 1018.7
20260505162042 50 178 2.6 6.1 0.00 0.00 0.00 98 1018.7
20260505161612 50 219 1.7 7.8 0.00 0.00 0.00 97 1018.6
20260505161042 50 242 1.7 8.7 0.00 0.00 0.00 97 1018.6
20260505160542 50 196 2.6 8.7 0.00 0.00 0.00 98 1018.5
20260505153100 49 221 3.5 8.7 0.00 0.00 0.00 97 1018.3
20260505152540 49 209 3.5 9.6 0.00 0.00 0.00 97 1018.3
20260505152042 49 226 3.5 9.6 0.00 0.00 0.00 97 1018.2
20260505151605 49 215 4.3 9.6 0.00 0.00 0.00 97 1018.2
20260505151040 49 232 4.3 10.4 0.00 0.00 0.00 97 1018.2
20260505150542 50 232 4.3 10.4 0.00 0.00 0.00 97 1018.1
20260505140540 49 193 2.6 7.0 0.00 0.00 0.00 97 1017.9
20260505124550 48 232 2.6 4.3 0.00 0.00 0.00 97 1017.5
20260505124041 48 247 1.7 4.3 0.00 0.00 0.00 97 1017.5
20260505123541 48 239 1.7 4.3 0.00 0.00 0.00 97 1017.6
20260505123051 48 259 0.0 3.5 0.00 0.00 0.00 97 1017.7
20260505122544 48 0 0.9 3.5 0.00 0.00 0.00 97 1017.6
20260505122042 48 108 1.7 3.5 0.00 0.00 0.00 97 1017.7
20260505121608 48 217 1.7 3.5 0.00 0.00 0.00 97 1017.7
20260505121039 48 255 0.9 2.6 0.00 0.00 0.00 97 1017.7
20260505120541 48 0 0.0 2.6 0.00 0.00 0.00 97 1017.7
20260505120048 48 205 0.9 3.5 0.00 0.00 0.00 97 1017.8
20260505115546 48 239 0.9 3.5 0.00 0.00 0.00 97 1017.7
20260505115041 48 162 0.9 3.5 0.00 0.00 0.00 97 1017.7
20260505114554 48 205 0.9 4.3 0.00 0.00 0.00 97 1017.6
20260505114041 48 0 0.9 4.3 0.00 0.00 0.00 97 1017.6
20260505113544 48 209 1.7 4.3 0.00 0.00 0.00 97 1017.4
20260505113050 48 200 0.9 3.5 0.00 0.00 0.00 97 1017.5
20260505112541 48 265 1.7 3.5 0.00 0.00 0.00 97 1017.5
20260505112039 48 279 0.9 3.5 0.00 0.00 0.00 97 1017.7
20260505111549 48 225 0.9 2.6 0.00 0.00 0.00 97 1017.8
20260505111040 48 247 0.9 2.6 0.00 0.00 0.00 97 1017.8
20260505110541 48 236 0.0 2.6 0.00 0.00 0.00 97 1018.0
20260505102038 48 325 0.0 1.7 0.00 0.00 0.00 96 1018.0
20260505101556 48 0 0.0 3.5 0.00 0.00 0.00 96 1017.8
20260505101041 48 190 0.9 3.5 0.00 0.00 0.00 96 1017.6
20260505100542 48 226 0.9 3.5 0.00 0.00 0.00 96 1017.5
20260505100045 48 217 0.9 3.5 0.00 0.00 0.00 96 1017.6
20260505095542 48 61 0.9 3.5 0.00 0.00 0.00 96 1017.8
20260505095042 48 178 0.9 3.5 0.00 0.00 0.00 96 1017.6
20260505094545 48 239 0.9 2.6 0.00 0.00 0.00 96 1017.8
20260505094042 48 0 0.9 2.6 0.00 0.00 0.00 96 1018.0
20260505093540 48 239 0.0 3.5 0.00 0.00 0.00 96 1018.0
20260505093050 48 165 0.9 3.5 0.00 0.00 0.00 96 1017.9
20260505092539 48 225 0.9 6.1 0.00 0.00 0.00 96 1018.2
20260505092041 48 128 0.9 6.1 0.00 0.00 0.00 96 1018.2
20260505091550 48 219 1.7 5.2 0.00 0.00 0.00 96 1017.9
20260505091038 48 286 2.6 5.2 0.00 0.00 0.00 96 1018.1
20260505090541 48 216 1.7 5.2 0.00 0.00 0.00 96 1018.1
20260505090059 48 93 0.0 5.2 0.00 0.00 0.00 96 1018.3
20260505085543 48 232 0.9 5.2 0.00 0.00 0.00 96 1018.4
20260505085042 48 221 0.9 6.1 0.00 0.00 0.00 96 1018.3
20260505084551 48 219 1.7 6.1 0.00 0.00 0.00 96 1018.5
20260505084041 48 221 2.6 6.1 0.00 0.00 0.00 96 1018.3
20260505083541 48 221 0.9 4.3 0.00 0.00 0.00 96 1018.4
20260505083056 48 9 1.7 4.3 0.00 0.00 0.00 96 1018.4
20260505082542 48 242 1.7 4.3 0.00 0.00 0.00 96 1018.2
20260505082042 48 221 1.7 3.5 0.00 0.00 0.00 96 1018.2
20260505081550 48 196 2.6 4.3 0.00 0.00 0.00 96 1018.2
20260505081045 48 209 1.7 4.3 0.00 0.00 0.00 96 1018.3
20260505080541 48 225 0.9 4.3 0.00 0.00 0.00 96 1018.3
20260505080049 48 250 1.7 4.3 0.00 0.00 0.00 96 1018.2
20260505075542 48 208 1.7 3.5 0.00 0.00 0.00 96 1018.4
20260505075039 48 205 0.9 4.3 0.00 0.00 0.00 96 1018.5
20260505074552 48 225 1.7 4.3 0.00 0.00 0.00 96 1018.5
20260505074038 48 265 0.9 3.5 0.00 0.00 0.00 96 1018.5
20260505073545 48 273 0.9 4.3 0.00 0.00 0.00 96 1018.5
20260505073048 48 215 1.7 4.3 0.00 0.00 0.00 96 1018.4
20260505072544 48 229 1.7 4.3 0.00 0.00 0.00 96 1018.5
20260505072042 48 232 0.9 2.6 0.00 0.00 0.00 96 1018.5
20260505071548 48 221 1.7 2.6 0.00 0.00 0.00 96 1018.6
20260505071041 48 221 0.9 2.6 0.00 0.00 0.00 96 1018.7
20260505070543 48 221 0.9 1.7 0.00 0.00 0.00 96 1018.8
20260505070051 47 205 0.0 3.5 0.00 0.00 0.00 95 1018.7
20260505065542 47 22 0.9 3.5 0.00 0.00 0.00 95 1018.8
20260505065041 47 250 0.9 5.2 0.00 0.00 0.00 95 1018.7
20260505064549 47 227 1.7 5.2 0.00 0.00 0.00 95 1018.5
20260505064041 47 282 1.7 7.8 0.00 0.00 0.00 95 1018.5
20260505063541 47 191 3.5 8.7 0.00 0.00 0.00 95 1018.4
20260505063048 47 234 2.6 8.7 0.00 0.00 0.00 95 1018.3
20260505062542 47 250 3.5 10.4 0.00 0.00 0.00 95 1018.2
20260505062042 48 238 3.5 10.4 0.00 0.00 0.00 95 1018.2
20260505061548 48 241 2.6 7.8 0.00 0.00 0.00 95 1018.1
20260505061038 48 238 3.5 8.7 0.00 0.00 0.00 95 1018.1
20260505060543 48 275 2.6 8.7 0.00 0.00 0.00 95 1018.1
20260505060052 48 236 3.5 8.7 0.00 0.00 0.00 95 1018.2
20260505055539 48 226 3.5 7.0 0.00 0.00 0.00 94 1018.2
20260505055043 48 245 2.6 6.1 0.00 0.00 0.00 94 1018.3
20260505054550 48 314 1.7 6.1 0.00 0.00 0.00 94 1018.3
20260505054042 48 210 1.7 4.3 0.00 0.00 0.00 94 1018.3
20260505053542 48 217 1.7 5.2 0.00 0.00 0.00 94 1018.4
20260505053059 48 233 1.7 5.2 0.00 0.00 0.00 94 1018.3
20260505052541 48 254 1.7 3.5 0.00 0.00 0.00 94 1018.3
20260505052042 48 259 1.7 4.3 0.00 0.00 0.00 93 1018.4
20260505051549 49 221 1.7 4.3 0.00 0.00 0.00 93 1018.3
20260505051043 49 219 1.7 6.1 0.00 0.00 0.00 93 1018.3
20260505050539 49 242 1.7 7.0 0.00 0.00 0.00 93 1018.4
20260505041550 50 265 2.6 7.8 0.00 0.00 0.00 92 1018.9
20260505041044 50 315 1.7 5.2 0.00 0.00 0.00 92 1018.8
20260505040544 50 245 1.7 6.1 0.00 0.00 0.00 92 1018.7
20260505040050 50 301 1.7 6.1 0.00 0.00 0.00 91 1018.7
20260505035541 50 232 1.7 6.1 0.00 0.00 0.00 91 1018.5
20260505035046 51 221 1.7 5.2 0.00 0.00 0.00 91 1018.3
20260505034546 51 215 0.9 4.3 0.00 0.00 0.00 90 1018.3
20260505034039 51 257 1.7 4.3 0.00 0.00 0.00 90 1018.2
20260505033540 51 255 1.7 5.2 0.00 0.00 0.00 90 1018.1
20260505033108 51 209 0.9 6.1 0.00 0.00 0.00 90 1018.0
20260505032537 51 229 0.9 6.1 0.00 0.00 0.00 90 1017.9
20260505032039 51 196 1.7 6.1 0.00 0.00 0.00 89 1017.9
20260505031550 51 287 1.7 7.0 0.00 0.00 0.00 89 1017.9
20260505031042 51 0 1.7 7.0 0.00 0.00 0.00 88 1017.8
20260505030539 51 257 2.6 7.0 0.00 0.00 0.00 88 1017.8
20260505030052 51 229 2.6 7.0 0.00 0.00 0.00 88 1017.9
20260505025538 51 227 1.7 7.0 0.00 0.00 0.00 88 1017.9
20260505025040 51 254 1.7 6.1 0.00 0.00 0.00 88 1017.9
20260505024546 51 142 1.7 8.7 0.00 0.00 0.00 87 1017.7
20260505024041 51 227 2.6 9.6 0.00 0.00 0.00 87 1017.8
20260505023538 51 237 2.6 9.6 0.00 0.00 0.00 88 1017.9
20260505023059 51 242 2.6 8.7 0.00 0.00 0.00 87 1017.9
20260505022539 51 249 1.7 8.7 0.00 0.00 0.00 87 1018.0
20260505022042 51 273 2.6 9.6 0.00 0.00 0.00 88 1017.8
20260505021553 52 239 2.6 9.6 0.00 0.00 0.00 88 1017.9
20260505021041 52 195 2.6 9.6 0.00 0.00 0.00 90 1017.8
20260505020538 52 237 2.6 6.1 0.00 0.00 0.00 91 1017.9
20260505020055 52 207 2.6 7.8 0.00 0.00 0.00 91 1017.8
20260505015538 52 230 2.6 7.8 0.00 0.00 0.00 91 1017.8
20260505015042 52 241 2.6 7.0 0.00 0.00 0.00 91 1017.9
20260505014549 52 226 2.6 7.0 0.00 0.00 0.00 91 1018.1
20260505014044 52 287 2.6 8.7 0.00 0.00 0.00 91 1018.2
20260505013539 52 201 2.6 8.7 0.00 0.00 0.00 91 1018.3
20260505013052 52 205 2.6 8.7 0.00 0.00 0.00 91 1018.3
20260505012540 52 279 3.5 8.7 0.00 0.00 0.00 91 1018.3
20260505012043 52 233 3.5 8.7 0.00 0.00 0.00 91 1018.3
20260505011558 52 209 3.5 9.6 0.00 0.00 0.00 91 1018.3
20260505011041 52 247 4.3 10.4 0.00 0.00 0.00 91 1018.3
20260505010540 52 271 3.5 10.4 0.00 0.00 0.00 90 1018.4
20260505010049 52 221 3.5 8.7 0.00 0.00 0.00 90 1018.4
20260505005540 52 296 2.6 10.4 0.00 0.00 0.00 90 1018.4
20260505005042 52 230 4.3 11.3 0.00 0.00 0.00 90 1018.4
20260505004558 52 241 4.3 11.3 0.00 0.00 0.00 89 1018.5
20260505004041 52 221 3.5 8.7 0.00 0.00 0.00 89 1018.5
20260505003538 52 287 4.3 8.7 0.00 0.00 0.00 88 1018.5
20260505003049 53 284 3.5 8.7 0.00 0.00 0.00 88 1018.5
20260505002542 53 271 3.5 8.7 0.00 0.00 0.00 88 1018.5
20260505002039 53 309 3.5 8.7 0.00 0.00 0.00 88 1018.5
20260505001550 53 192 3.5 8.7 0.00 0.00 0.00 88 1018.7
20260505001038 53 235 3.5 8.7 0.00 0.00 0.00 88 1018.6
20260505000541 53 265 4.3 9.6 0.00 0.00 0.00 87 1018.5
20260505000051 53 215 3.5 9.6 0.00 0.00 0.00 86 1018.5
20260504235541 53 298 3.5 8.7 0.00 0.00 0.00 86 1018.5
20260504235044 53 245 3.5 8.7 0.00 0.00 0.00 86 1018.5
20260504234613 53 215 3.5 11.3 0.00 0.00 0.00 86 1018.4
20260504234038 53 208 3.5 11.3 0.00 0.00 0.00 86 1018.5
20260504233538 53 212 3.5 11.3 0.00 0.00 0.00 85 1018.5
20260504233051 54 267 3.5 8.7 0.00 0.00 0.00 86 1018.4
20260504232539 54 225 4.3 8.7 0.00 0.00 0.00 85 1018.3
20260504232041 54 237 4.3 9.6 0.00 0.00 0.00 85 1018.4
20260504231554 54 281 4.3 9.6 0.00 0.00 0.00 85 1018.3
20260504231038 54 250 3.5 9.6 0.00 0.00 0.00 85 1018.5
20260504230538 54 51 4.3 9.6 0.00 0.00 0.00 84 1018.5
20260504230046 54 241 3.5 8.7 0.00 0.00 0.00 84 1018.4
20260504225541 54 221 4.3 8.7 0.00 0.00 0.00 84 1018.5
20260504225040 55 193 2.6 8.7 0.00 0.00 0.00 85 1018.4
20260504224555 55 230 4.3 8.7 0.00 0.00 0.00 85 1018.4
20260504224041 55 265 3.5 7.8 0.00 0.00 0.00 84 1018.4
20260504223541 55 202 4.3 9.6 0.00 0.00 0.00 84 1018.6
20260504223049 55 277 2.6 10.4 0.00 0.00 0.00 84 1018.6
20260504222539 55 171 5.2 10.4 0.00 0.00 0.00 83 1018.6
20260504222041 55 265 4.3 8.7 0.00 0.00 0.00 83 1018.6
20260504221600 55 196 2.6 7.8 0.00 0.00 0.00 82 1018.8
20260504221039 55 193 2.6 8.7 0.00 0.00 0.00 82 1018.7
20260504220540 55 261 3.5 9.6 0.00 0.00 0.00 80 1018.7
20260504220053 56 268 4.3 9.6 0.00 0.00 0.00 79 1018.7
20260504215542 56 214 2.6 9.6 0.00 0.00 0.00 79 1018.7
20260504215042 57 214 3.5 9.6 0.00 0.00 0.00 79 1018.7
20260504214551 56 207 3.5 9.6 0.00 0.00 0.00 80 1018.7
20260504214040 56 212 3.5 10.4 0.00 0.00 0.00 82 1018.8
20260504213539 55 223 3.5 10.4 0.00 0.00 0.00 81 1018.7
20260504213058 55 265 4.3 10.4 0.00 0.00 0.00 81 1018.6
20260504212539 56 242 5.2 11.3 0.00 0.00 0.00 81 1018.7
20260504212042 56 332 4.3 11.3 0.00 0.00 0.00 82 1018.6
20260504211549 55 221 5.2 9.6 0.00 0.00 0.00 82 1018.6
20260504211039 55 80 5.2 9.6 0.00 0.00 0.00 82 1018.6
20260504210541 55 270 4.3 9.6 0.00 0.00 0.00 82 1018.6
20260504210057 56 270 4.3 10.4 0.00 0.00 0.00 82 1018.8
20260504205544 56 219 4.3 10.4 0.00 0.00 0.00 81 1018.7
20260504205041 56 238 4.3 10.4 0.00 0.00 0.00 81 1018.7
20260504204627 56 266 4.3 10.4 0.00 0.00 0.00 81 1018.7
20260504204040 56 261 4.3 9.6 0.00 0.00 0.00 78 1018.7
20260504203547 55 273 3.5 7.8 0.00 0.00 0.00 80 1018.8
20260504203051 55 248 3.5 7.8 0.00 0.00 0.00 80 1018.8
20260504202541 55 225 2.6 7.8 0.00 0.00 0.00 83 1018.8
20260504202043 55 219 4.3 8.7 0.00 0.00 0.00 83 1018.7
20260504201548 54 210 3.5 9.6 0.00 0.00 0.00 83 1018.8